DELTA 1 DEB, 42565

Orbit data source: Space-Track

DELTA 1 DEB, 42565 is space debris in SSO originally from a launch on Sun, 23 Jul 1972 UTC launched from the Air Force Western Test Range (AFWTR). Debris objects in space refer to the collection of defunct objects orbiting the Earth. Examples of debris include non-operational satellites, rocket bodies, and fragments generated from explosions, collisions, or faulty payload assembly.

Loading next visibility...
Identifier
42565, 1972-058JY
Orbit
SSO
Country
Flag of USUS
Related business
Manufacturer
Unknown
Mission
Spacecraft
Bus & Motor
Unknown
Mass
Unknown
Launch date (UTC)
1972-07-23 (53 years ago)
Launch vehicle
Unknown
Launch site
Air Force Western Test Range (AFWTR)
Object type
Payload
Rocket body
Debris
Shape & HBR
Unknown
Radar Cross Section
Small (<0.1 m²)

Expand to show TLE details & history
Last TLE update: 1 day ago

TLE from 1 day ago
0 DELTA 1 DEB
1 42565U 72058JY  25259.72700234  .00000537  00000-0  13259-3 0  9990
2 42565  97.8444  66.3110 0035550 318.1692  41.6791 14.55350904626687
Epoch: 2025-09-16T17:26Z
TLE epoch observation values (Epoch: 2025-09-16T17:26:53.002Z)
Latitude
0.00004°
Longitude
168.677°
Altitude
692.435 km
Speed
7.52 km/s
True Right ascension
04h 25m 14s
True Declination
0° 00' 00"
Sunlit
Object was in daylight at epoch
Visualization orbit readout
Latitude
Unknown
Longitude
Unknown
Altitude
Unknown
Speed
Unknown
Apparent Right ascension
Unknown
Apparent Declination
Unknown
Sunlit
N/A
Visualization observer readout
Local Sidereal Time
21:12:17
Azimuth
Unknown
Elevation
Unknown
Doppler factor
Unknown
Orbital elements
Apogee altitude
730.478 km
Perigee altitude
680.115 km
Semi-major axis
7,083.434 km
Eccentricity
0.00356
Inclination
97.8444°
RAAN
66.311°
Arg. of periapsis
318.1692°
True anomaly
41.95089°
Mean anomaly
41.6791°
Eccentric anomaly
41.8149°
Mean motion
3.64064 °/min
Orbital period
98.88 mins
BSTAR
0.00013259
Loading maneuver chart data...
Computing Atmospheric mass density...

Documentation

Showing up to 5 results
|